TimeMST,TemperatureF,Dew PointF,Humidity,Sea Level PressureIn,VisibilityMPH,Wind Direction,Wind SpeedMPH,Gust SpeedMPH,PrecipitationIn,Events,Conditions,WindDirDegrees,DateUTC
12:53 AM,27.0,25.0,92,30.21,8.0,North,10.4,-,N/A,,Overcast,360,2013-11-11 07:53:00
1:53 AM,26.1,25.0,96,30.23,4.0,North,12.7,-,N/A,,Overcast,360,2013-11-11 08:53:00
2:53 AM,26.1,25.0,96,30.26,5.0,North,10.4,-,N/A,,Overcast,350,2013-11-11 09:53:00
3:53 AM,26.1,24.1,92,30.30,6.0,North,9.2,-,N/A,,Overcast,360,2013-11-11 10:53:00
4:53 AM,25.0,23.0,92,30.37,3.0,North,11.5,-,N/A,,Overcast,360,2013-11-11 11:53:00
4:57 AM,24.8,23.0,93,30.30,1.8,North,10.4,-,N/A,,Overcast,10,2013-11-11 11:57:00
5:06 AM,24.8,23.0,93,30.32,0.5,North,11.5,-,N/A,Fog,Light Freezing Fog,360,2013-11-11 12:06:00
5:53 AM,24.1,23.0,96,30.42,0.5,North,8.1,-,N/A,Fog,Light Freezing Fog,10,2013-11-11 12:53:00
6:08 AM,23.0,21.2,93,30.33,1.0,North,5.8,-,N/A,,Mist,10,2013-11-11 13:08:00
6:19 AM,23.0,21.2,93,30.33,3.0,North,5.8,-,N/A,,Overcast,350,2013-11-11 13:19:00
6:53 AM,23.0,21.9,96,30.46,5.0,North,5.8,-,N/A,,Overcast,360,2013-11-11 13:53:00
7:03 AM,23.0,21.2,93,30.36,1.8,North,3.5,-,N/A,,Overcast,10,2013-11-11 14:03:00
7:19 AM,23.0,21.2,93,30.36,0.5,Calm,Calm,-,0.00,Fog-Snow,Light Snow,0,2013-11-11 14:19:00
7:28 AM,24.8,21.2,86,30.36,1.0,Calm,Calm,-,0.00,Snow,Light Snow,0,2013-11-11 14:28:00
7:44 AM,24.8,21.2,86,30.37,0.5,Calm,Calm,-,0.00,Fog,Light Freezing Fog,0,2013-11-11 14:44:00
7:53 AM,24.1,23.0,96,30.48,0.8,Calm,Calm,-,0.00,,Overcast,0,2013-11-11 14:53:00
8:00 AM,24.8,23.0,93,30.38,2.0,Calm,Calm,-,N/A,,Overcast,0,2013-11-11 15:00:00
8:08 AM,24.8,23.0,93,30.38,4.0,NNW,3.5,-,N/A,,Overcast,330,2013-11-11 15:08:00
8:53 AM,25.0,24.1,96,30.51,6.0,Calm,Calm,-,N/A,,Overcast,0,2013-11-11 15:53:00
9:41 AM,26.6,24.8,93,30.41,8.0,North,3.5,-,N/A,,Overcast,360,2013-11-11 16:41:00
9:53 AM,26.1,24.1,92,30.53,8.0,North,3.5,-,N/A,,Overcast,10,2013-11-11 16:53:00
10:53 AM,28.0,25.0,88,30.54,7.0,NNE,4.6,-,N/A,,Overcast,30,2013-11-11 17:53:00
11:36 AM,28.4,24.8,86,30.43,2.5,NNE,3.5,-,0.00,Snow,Light Snow,30,2013-11-11 18:36:00
11:40 AM,28.4,24.8,86,30.42,1.8,NE,3.5,-,0.00,Snow,Light Snow,40,2013-11-11 18:40:00
11:53 AM,28.9,25.0,85,30.54,1.5,NE,5.8,-,0.00,Snow,Light Snow,50,2013-11-11 18:53:00
12:02 PM,28.4,24.8,86,30.43,3.0,NNE,5.8,-,0.00,Snow,Light Snow,30,2013-11-11 19:02:00
12:22 PM,28.4,24.8,86,30.43,1.8,NE,3.5,-,0.01,Snow,Light Snow,50,2013-11-11 19:22:00
12:39 PM,28.4,24.8,86,30.43,3.0,NNE,5.8,-,0.01,Snow,Light Snow,30,2013-11-11 19:39:00
12:53 PM,30.0,25.0,82,30.54,9.0,Variable,3.5,-,0.01,,Overcast,0,2013-11-11 19:53:00
1:23 PM,30.2,24.8,80,30.43,2.0,NNE,3.5,-,0.00,Snow,Light Snow,30,2013-11-11 20:23:00
1:31 PM,28.4,24.8,86,30.43,1.8,Calm,Calm,-,0.00,Snow,Light Snow,0,2013-11-11 20:31:00
1:37 PM,30.2,24.8,80,30.43,2.0,Calm,Calm,-,0.00,Snow,Light Snow,0,2013-11-11 20:37:00
1:53 PM,30.0,25.0,82,30.56,6.0,Calm,Calm,-,0.00,,Haze,0,2013-11-11 20:53:00
2:19 PM,30.2,24.8,80,30.44,2.0,NNE,3.5,-,0.00,Snow,Light Snow,20,2013-11-11 21:19:00
2:26 PM,30.2,26.6,86,30.45,2.0,NNE,3.5,-,0.00,Snow,Light Snow,20,2013-11-11 21:26:00
2:45 PM,28.4,26.6,93,30.45,3.0,NNE,4.6,-,0.00,Snow,Light Snow,30,2013-11-11 21:45:00
2:53 PM,28.9,26.1,89,30.57,4.0,NNE,4.6,-,0.00,Snow,Light Snow,30,2013-11-11 21:53:00
3:04 PM,28.4,26.6,93,30.45,4.0,ENE,3.5,-,0.00,Snow,Light Snow,60,2013-11-11 22:04:00
3:36 PM,28.4,26.6,93,30.47,2.0,Calm,Calm,-,0.01,Snow,Light Snow,0,2013-11-11 22:36:00
3:53 PM,28.9,26.1,89,30.58,3.0,ENE,3.5,-,0.01,Snow,Light Snow,60,2013-11-11 22:53:00
4:22 PM,28.4,26.6,93,30.48,10.0,NE,5.8,-,0.00,,Overcast,40,2013-11-11 23:22:00
4:53 PM,30.0,26.1,85,30.61,10.0,Calm,Calm,-,0.00,,Overcast,0,2013-11-11 23:53:00
5:53 PM,30.0,27.0,88,30.64,10.0,SSE,5.8,-,N/A,,Overcast,160,2013-11-12 00:53:00
6:53 PM,30.9,27.0,85,30.63,10.0,South,6.9,-,N/A,,Overcast,190,2013-11-12 01:53:00
7:53 PM,30.0,26.1,85,30.63,10.0,South,8.1,-,N/A,,Overcast,180,2013-11-12 02:53:00
8:19 PM,28.4,24.8,86,30.52,10.0,South,9.2,-,N/A,,Scattered Clouds,180,2013-11-12 03:19:00
8:53 PM,27.0,25.0,92,30.66,10.0,South,9.2,-,N/A,,Clear,180,2013-11-12 03:53:00
9:44 PM,26.6,24.8,93,30.54,10.0,South,8.1,-,N/A,,Partly Cloudy,170,2013-11-12 04:44:00
9:53 PM,28.0,26.1,92,30.66,10.0,South,10.4,-,N/A,,Mostly Cloudy,180,2013-11-12 04:53:00
10:53 PM,30.0,28.0,92,30.65,8.0,South,18.4,-,N/A,,Overcast,170,2013-11-12 05:53:00
11:53 PM,30.0,28.0,92,30.63,8.0,South,12.7,-,N/A,,Overcast,180,2013-11-12 06:53:00